Flag for Germany Weather past 2 weeks in Cologne, North Rhine-Westphalia, Germany

Now
72 °F

Partly sunny.


Feels Like: 77 °F
Forecast: 52 / 70 °F
Wind: 2 mph from North

Location: Koeln / Bonn

Current Time: Oct 2, 2014 at 6:11:42 PM

Latest Report: Oct 2, 2014 at 5:20 PM


Visibility: N/A

Pressure: 30.33 "Hg

Humidity: 53%

Dew point: 54 °F

Location of CologneLocation

Historic Weather in Cologne — Graph

°F

Cologne temperature yesterday

Maximum temperature yesterday: 72 °F (at 2:20 PM)
Minimum temperature yesterday: 52 °F (at 2:20 AM)
Average temperature yesterday: 60 °F

Past Weeks' High & Low Weather Summary

 TemperatureHumidityPressure
High77 °F (Sep 17, 4:20 PM)100% (Sep 19, 11:50 PM)30.42 "Hg (Sep 19, 11:50 PM)
Low43 °F (Sep 23, 4:20 AM)44% (Sep 17, 4:20 PM)29.83 "Hg (Sep 18, 3:50 PM)
Average59 °F83%30.12 "Hg
* Reported Sep 17 4:20 PM — Oct 2 4:50 PM, Cologne, Weather by CustomWeather, © 2014

Note: Actual official high and low records may vary slightly from our data, if they occured in-between our weather recording intervals... More about our weather records

Advertising

Cologne weather history for previous 24 hours

 ConditionsComfort  
Time TempWeatherWind HumidityBarometerVisibility
4:50 PM
Oct 2
72 °FPartly sunny.1 mph53%30.33 "HgN/A
4:20 PM72 °FPartly sunny.3 mph57%30.36 "HgN/A
3:50 PM70 °FPartly sunny.2 mph60%30.36 "HgN/A
3:20 PM70 °FPartly sunny.2 mph64%30.36 "HgN/A
2:50 PM68 °FPartly sunny.3 mph64%30.36 "HgN/A
2:20 PM68 °FPartly sunny.3 mph64%30.36 "HgN/A
1:50 PM68 °FPartly sunny.3 mph64%30.36 "HgN/A
1:20 PM68 °FPartly sunny.1 mph64%30.39 "HgN/A
12:50 PM70 °FPartly sunny.2 mph60%30.39 "HgN/A
12:20 PM66 °FPartly sunny.5 mph68%30.39 "HgN/A
11:50 AM66 °FPartly sunny.3 mph73%30.39 "HgN/A
11:20 AM63 °FSunny.5 mph77%30.39 "Hg10 mi
10:50 AM61 °FSunny.3 mph83%30.39 "Hg10 mi
10:20 AM59 °FSunny.3 mph88%30.42 "Hg10 mi
9:50 AM57 °FSunny.2 mph88%30.39 "Hg10 mi
9:20 AM54 °FSunny.2 mph100%30.39 "Hg10 mi
8:50 AM52 °FSunny.2 mph100%30.39 "Hg10 mi
8:20 AM48 °FFog.2 mph94%30.39 "HgN/A
7:50 AM48 °FFog.2 mph94%30.39 "HgN/A
7:20 AM50 °FFog.2 mph100%30.39 "HgN/A
6:50 AM50 °FFog.3 mph100%30.36 "HgN/A
6:20 AM48 °FFog.3 mph94%30.36 "HgN/A
5:50 AM50 °FFog.5 mph94%30.36 "HgN/A
5:20 AM50 °FFog.2 mph100%30.36 "HgN/A
4:50 AM50 °FFog.3 mph100%30.36 "HgN/A
4:20 AM50 °FFog.3 mph100%30.36 "HgN/A
3:50 AM52 °FFog.3 mph94%30.36 "HgN/A
3:20 AM52 °FFog.2 mph94%30.36 "HgN/A
2:50 AM52 °FFog.3 mph94%30.36 "HgN/A
2:20 AM52 °FFog.2 mph94%30.36 "HgN/A
1:50 AM52 °FFog.7 mph94%30.36 "HgN/A
1:20 AM52 °FFog.5 mph94%30.36 "HgN/A
12:50 AM54 °FFog.5 mph94%30.36 "HgN/A
12:20 AM54 °FFog.3 mph100%30.36 "HgN/A
11:50 PM
Oct 1
55 °FFog.6 mph94%30.36 "HgN/A
11:20 PM55 °FFog.6 mph94%30.36 "HgN/A
10:50 PM55 °FFog.5 mph94%30.36 "HgN/A
10:20 PM57 °FPassing clouds.5 mph94%30.36 "HgN/A
9:50 PM57 °FPassing clouds.5 mph94%30.36 "HgN/A
9:20 PM57 °FFog.5 mph94%30.33 "HgN/A
8:50 PM59 °FFog.5 mph88%30.33 "HgN/A
8:20 PM59 °FPassing clouds.3 mph88%30.33 "HgN/A
7:50 PM61 °FPassing clouds.5 mph83%30.33 "HgN/A
7:20 PM64 °FPassing clouds.3 mph78%30.33 "HgN/A
6:50 PM66 °FPassing clouds.3 mph73%30.30 "HgN/A
6:20 PM68 °FPassing clouds.3 mph69%30.30 "HgN/A
Weather by CustomWeather, © 2014

See weather overviewHow to use our weather pages